This demonstration page uses our WeatherBlox Daily Observations layout. Learn more.

Left ArrowRight Arrow

39.08367, -84.50855

Hourly Observations for October 11, 2015

Temp ( °F °C ) Dew Point ( °F °C ) Humidity (%) Winds ( mph kmh ) Pressure ( in mb ) Visibility ( mi km ) Precip ( " mm )
12:53 am 00:53 Clear 46 7.8 46 7.8 100 100 Calm 30.06 1018 8 13 0.00 0.00
1:31 am 01:31 Clear with Mist and Fog 44 6.7 44 6.7 100 100 Calm 30.06 1018 2 2 0.00 0.00
1:41 am 01:41 Clear with Mist and Fog 44 6.7 44 6.7 100 100 Calm 30.06 1018 3 5 0.00 0.00
1:53 am 01:53 Clear with Mist and Fog 44 6.7 44 6.7 100 100 Calm 30.06 1018 4 6 0.00 0.00
2:36 am 02:36 Partly Cloudy with Mist and Fog 45 7 43 6 93 93 Calm 30.06 1018 6 10 0.00 0.00
2:46 am 02:46 Mostly Cloudy with Mist and Fog 43 6 43 6 100 100 Calm 30.06 1018 3 5 0.00 0.00
2:49 am 02:49 Mostly Cloudy with Mist and Fog 43 6 43 6 100 100 Calm 30.06 1018 2 3 0.00 0.00
2:53 am 02:53 Mostly Cloudy with Fog 43 6.1 43 6.1 100 100 Calm 30.05 1018 1 1 0.00 0.00
3:53 am 03:53 Mostly Cloudy with Fog 44 6.7 44 6.7 100 100 Calm 30.04 1017 0 0 0.00 0.00
4:53 am 04:53 Mostly Cloudy with Fog 45 7.2 45 7.2 100 100 Calm 30.03 1017 0 0 0.00 0.00
5:26 am 05:26 Mostly Cloudy with Fog 45 7 45 7 100 100 Calm 30.03 1017 1 1 0.00 0.00
5:38 am 05:38 Mostly Cloudy with Fog 45 7 45 7 100 100 Calm 30.03 1017 0 0 0.00 0.00
5:53 am 05:53 Mostly Cloudy with Fog 43 6.1 43 6.1 100 100 Calm 30.04 1017 1 1 0.00 0.00
6:04 am 06:04 Mostly Cloudy with Fog 43 6 43 6 100 100 Calm 30.06 1018 0 0 0.00 0.00
6:36 am 06:36 Mostly Cloudy with Fog 43 6 43 6 100 100 Calm 30.03 1017 1 1 0.00 0.00
6:46 am 06:46 Mostly Cloudy with Fog 43 6 43 6 100 100 Calm 30.03 1017 0 0 0.00 0.00
6:53 am 06:53 Mostly Cloudy with Fog 42 5.6 42 5.6 100 100 Calm 30.04 1017 0 0 0.00 0.00
7:15 am 07:15 Mostly Cloudy with Fog 42 5.6 42 5.6 100 100 Calm 30.03 1017 1 1 0.00 0.00
7:24 am 07:24 Mostly Cloudy with Fog 43 6 43 6 100 100 Calm 30.03 1017 0 0 0.00 0.00
7:34 am 07:34 Mostly Cloudy with Fog 43 6 43 6 100 100 Calm 30.03 1017 1 1 0.00 0.00
7:53 am 07:53 Cloudy with Fog 42 5.6 42 5.6 100 100 ENE 3 6 30.05 1018 0 0 0.00 0.00
8:00 am 08:00 Cloudy with Mist and Fog 43 6 43 6 100 100 NE 3 6 30.06 1018 1 2 0.00 0.00
8:04 am 08:04 Cloudy with Mist and Fog 42 5.6 42 5.6 100 100 ENE 3 6 30.06 1018 3 5 0.00 0.00
8:08 am 08:08 Cloudy with Fog 43 6 43 6 100 100 Calm 30.06 1018 1 1 0.00 0.00
8:53 am 08:53 Partly Cloudy with Mist and Fog 44 6.7 44 6.7 100 100 Calm 30.06 1018 3 5 0.00 0.00
8:56 am 08:56 Sunny with Mist and Fog 45 7 45 7 100 100 Calm 30.06 1018 2 3 0.00 0.00
9:11 am 09:11 Partly Cloudy with Mist and Fog 45 7.2 45 7.2 100 100 Calm 30.06 1018 6 10 0.00 0.00
9:53 am 09:53 Sunny 49 9.4 48 8.9 97 97 Calm 30.06 1018 7 11 0.00 0.00
10:53 am 10:53 Sunny 57 13.9 52 11.1 83 83 S 3 6 30.04 1017 10 16 0.00 0.00
11:53 am 11:53 Sunny 64 17.8 52 11.1 65 65 S 6 9 30.02 1017 10 16 0.00 0.00
12:53 pm 12:53 Sunny 68 20 50 10 53 53 SW 9 15 30.00 1016 10 16 0.00 0.00
1:53 pm 13:53 Sunny 69 20.6 48 8.9 47 47 SW 7 11 29.98 1015 10 16 0.00 0.00
2:53 pm 14:53 Sunny 71 21.7 50 10 47 47 SSW 10 17 29.94 1014 10 16 0.00 0.00
3:53 pm 15:53 Sunny 72 22.2 48 8.9 43 43 SSW 9 15 29.91 1013 10 16 0.00 0.00
4:53 pm 16:53 Sunny 71 21.7 48 8.9 44 44 SSW 12 19 29.89 1012 10 16 0.00 0.00
5:53 pm 17:53 Sunny 69 20.6 48 8.9 47 47 S 8 13 29.88 1012 10 16 0.00 0.00
6:53 pm 18:53 Sunny 64 17.8 49 9.4 58 58 S 5 7 29.86 1011 10 16 0.00 0.00
7:53 pm 19:53 Clear 59 15 52 11.1 78 78 Calm 29.87 1012 10 16 0.00 0.00
8:53 pm 20:53 Clear 54 12.2 50 10 87 87 Calm 29.88 1012 10 16 0.00 0.00
9:53 pm 21:53 Clear 52 11.1 50 10 93 93 Calm 29.88 1012 10 16 0.00 0.00
10:53 pm 22:53 Clear 50 10 49 9.4 96 96 Calm 29.88 1012 10 16 0.00 0.00
11:53 pm 23:53 Clear 50 10 49 9.4 96 96 Calm 29.88 1012 8 13 0.00 0.00

Powered by AerisWeather